• In Belarus
  • List of Countries
  • For 7 days
  • Water Temperature
  • Satellite Maps
  • Weather Map
  • Weather Widgets
  • user-avatar
    Login

    Hourly Weather Porfyrivka

    Today, 19 April, Friday

    Time Temperature Precipitation Wind Pressure Humidity
    00:00 +3°C° 0 mm 4 mps 761 mmHg 60%
    01:00 +3°C° 0 mm 4 mps 760 mmHg 61%
    02:00 +2°C° 0 mm 5 mps 760 mmHg 62%
    03:00 +3°C° 0 mm 5 mps 760 mmHg 63%
    04:00 +3°C° 0 mm 5 mps 760 mmHg 64%
    05:00 +3°C° 0 mm 5 mps 760 mmHg 64%
    06:00 +5°C° 0 mm 5 mps 760 mmHg 62%
    07:00 +5°C° 0 mm 6 mps 760 mmHg 60%
    08:00 +5°C° 0 mm 7 mps 760 mmHg 57%
    09:00 +6°C° 0 mm 7 mps 760 mmHg 54%
    10:00 +8°C° 0 mm 7 mps 760 mmHg 51%
    11:00 +9°C° 0 mm 7 mps 760 mmHg 47%
    12:00 +9°C° 0 mm 7 mps 760 mmHg 46%
    13:00 +9°C° 0 mm 7 mps 760 mmHg 45%
    14:00 +9°C° 0 mm 7 mps 760 mmHg 44%
    15:00 +8°C° 0 mm 7 mps 760 mmHg 45%
    16:00 +8°C° 0 mm 7 mps 760 mmHg 45%
    17:00 +6°C° 0 mm 7 mps 760 mmHg 46%
    18:00 +5°C° 0 mm 6 mps 760 mmHg 49%
    19:00 +5°C° 0 mm 5 mps 761 mmHg 53%
    20:00 +4°C° 0 mm 4 mps 761 mmHg 56%
    21:00 +3°C° 0.1 mm 5 mps 761 mmHg 58%
    22:00 +3°C° 0.1 mm 5 mps 760 mmHg 59%
    23:00 +4°C° 0.1 mm 6 mps 760 mmHg 60%

    Tomorrow, 20 April, Saturday

    Time Temperature Precipitation Wind Pressure Humidity
    00:00 +4°C° 0.3 mm 7 mps 760 mmHg 63%
    01:00 +4°C° 0.3 mm 7 mps 760 mmHg 65%
    02:00 +4°C° 0.3 mm 8 mps 759 mmHg 68%
    03:00 +4°C° 0.4 mm 8 mps 759 mmHg 68%
    04:00 +4°C° 0.4 mm 8 mps 759 mmHg 68%
    05:00 +2°C° 0.4 mm 9 mps 759 mmHg 67%
    06:00 +3°C° 0.1 mm 10 mps 759 mmHg 64%
    07:00 +5°C° 0.1 mm 10 mps 759 mmHg 61%
    08:00 +6°C° 0.1 mm 11 mps 759 mmHg 58%
    09:00 +7°C° 0 mm 11 mps 759 mmHg 55%
    10:00 +7°C° 0 mm 12 mps 759 mmHg 52%
    11:00 +8°C° 0 mm 12 mps 759 mmHg 49%
    12:00 +8°C° 0 mm 12 mps 759 mmHg 49%
    13:00 +8°C° 0 mm 12 mps 759 mmHg 50%
    14:00 +8°C° 0 mm 12 mps 760 mmHg 51%
    15:00 +7°C° 0 mm 11 mps 760 mmHg 53%
    16:00 +7°C° 0 mm 10 mps 760 mmHg 55%
    17:00 +6°C° 0 mm 9 mps 760 mmHg 57%
    18:00 +6°C° 0 mm 8 mps 760 mmHg 57%
    19:00 +5°C° 0 mm 7 mps 761 mmHg 58%
    20:00 +5°C° 0 mm 6 mps 761 mmHg 58%
    21:00 +5°C° 0 mm 6 mps 761 mmHg 58%
    22:00 +5°C° 0 mm 5 mps 761 mmHg 58%
    23:00 +5°C° 0 mm 5 mps 761 mmHg 58%

    Day after tomorrow, 21 April, Sunday

    Time Temperature Precipitation Wind Pressure Humidity
    00:00 +5°C° 0 mm 5 mps 761 mmHg 59%
    01:00 +3°C° 0 mm 5 mps 761 mmHg 61%
    02:00 +3°C° 0 mm 5 mps 761 mmHg 62%
    03:00 +3°C° 0 mm 5 mps 761 mmHg 64%
    04:00 +3°C° 0 mm 5 mps 761 mmHg 66%
    05:00 +2°C° 0 mm 5 mps 761 mmHg 68%
    06:00 +5°C° 0 mm 5 mps 761 mmHg 64%
    07:00 +7°C° 0 mm 5 mps 761 mmHg 60%
    08:00 +8°C° 0 mm 6 mps 761 mmHg 57%
    09:00 +9°C° 0 mm 6 mps 761 mmHg 52%
    10:00 +10°C° 0 mm 6 mps 761 mmHg 47%
    11:00 +11°C° 0 mm 6 mps 761 mmHg 42%
    12:00 +12°C° 0 mm 7 mps 761 mmHg 41%
    13:00 +12°C° 0 mm 7 mps 761 mmHg 39%
    14:00 +12°C° 0 mm 7 mps 761 mmHg 38%
    15:00 +11°C° 0 mm 7 mps 761 mmHg 39%
    16:00 +11°C° 0 mm 7 mps 761 mmHg 39%
    17:00 +10°C° 0 mm 7 mps 761 mmHg 40%
    18:00 +9°C° 0 mm 6 mps 761 mmHg 44%
    19:00 +8°C° 0 mm 5 mps 761 mmHg 48%
    20:00 +6°C° 0 mm 4 mps 762 mmHg 52%
    21:00 +6°C° 0 mm 4 mps 762 mmHg 52%
    22:00 +6°C° 0 mm 4 mps 762 mmHg 53%
    23:00 +6°C° 0 mm 4 mps 762 mmHg 53%

    22 April, Monday

    Time Temperature Precipitation Wind Pressure Humidity
    00:00 +6°C° 0 mm 4 mps 762 mmHg 55%
    01:00 +6°C° 0 mm 4 mps 762 mmHg 57%
    02:00 +6°C° 0 mm 5 mps 761 mmHg 59%
    03:00 +5°C° 0 mm 5 mps 762 mmHg 63%
    04:00 +5°C° 0 mm 5 mps 762 mmHg 67%
    05:00 +4°C° 0 mm 4 mps 762 mmHg 71%
    06:00 +6°C° 0 mm 5 mps 762 mmHg 66%
    07:00 +8°C° 0 mm 6 mps 762 mmHg 61%
    08:00 +9°C° 0 mm 6 mps 763 mmHg 56%
    09:00 +11°C° 0 mm 7 mps 763 mmHg 51%
    10:00 +12°C° 0 mm 7 mps 763 mmHg 45%
    11:00 +13°C° 0 mm 8 mps 763 mmHg 40%
    12:00 +13°C° 0 mm 8 mps 763 mmHg 39%
    13:00 +13°C° 0 mm 8 mps 763 mmHg 38%
    14:00 +13°C° 0 mm 8 mps 763 mmHg 37%
    15:00 +12°C° 0 mm 8 mps 763 mmHg 39%
    16:00 +12°C° 0 mm 7 mps 763 mmHg 41%
    17:00 +11°C° 0 mm 7 mps 763 mmHg 43%
    18:00 +10°C° 0 mm 6 mps 763 mmHg 47%
    19:00 +8°C° 0 mm 5 mps 764 mmHg 52%
    20:00 +7°C° 0 mm 4 mps 764 mmHg 57%
    21:00 +7°C° 0 mm 4 mps 764 mmHg 57%
    22:00 +6°C° 0 mm 4 mps 764 mmHg 58%
    23:00 +6°C° 0 mm 4 mps 765 mmHg 58%

    23 April, Tuesday

    Time Temperature Precipitation Wind Pressure Humidity
    00:00 +6°C° 0 mm 4 mps 764 mmHg 60%
    01:00 +6°C° 0 mm 4 mps 764 mmHg 61%
    02:00 +6°C° 0 mm 4 mps 764 mmHg 63%
    03:00 +5°C° 0 mm 4 mps 764 mmHg 66%
    04:00 +5°C° 0 mm 4 mps 765 mmHg 70%
    05:00 +5°C° 0 mm 4 mps 765 mmHg 73%
    06:00 +7°C° 0 mm 5 mps 765 mmHg 68%
    07:00 +9°C° 0 mm 5 mps 766 mmHg 64%
    08:00 +10°C° 0 mm 5 mps 766 mmHg 60%
    09:00 +11°C° 0 mm 6 mps 766 mmHg 54%
    10:00 +14°C° 0 mm 6 mps 766 mmHg 49%
    11:00 +15°C° 0 mm 6 mps 766 mmHg 44%
    12:00 +15°C° 0 mm 6 mps 766 mmHg 44%
    13:00 +15°C° 0 mm 6 mps 766 mmHg 43%
    14:00 +16°C° 0 mm 6 mps 766 mmHg 43%
    15:00 +15°C° 0 mm 6 mps 766 mmHg 44%
    16:00 +15°C° 0 mm 6 mps 766 mmHg 45%
    17:00 +14°C° 0 mm 6 mps 766 mmHg 46%
    18:00 +11°C° 0 mm 6 mps 766 mmHg 49%
    19:00 +10°C° 0 mm 5 mps 766 mmHg 53%
    20:00 +8°C° 0 mm 5 mps 766 mmHg 56%
    21:00 +8°C° 0 mm 5 mps 766 mmHg 58%
    22:00 +7°C° 0 mm 5 mps 766 mmHg 60%
    23:00 +7°C° 0 mm 5 mps 766 mmHg 62%

    24 April, Wednesday

    Time Temperature Precipitation Wind Pressure Humidity
    00:00 +7°C° 0 mm 5 mps 766 mmHg 63%
    01:00 +7°C° 0 mm 5 mps 766 mmHg 64%
    02:00 +6°C° 0 mm 5 mps 765 mmHg 65%
    03:00 +5°C° 0 mm 6 mps 765 mmHg 67%
    04:00 +5°C° 0 mm 6 mps 765 mmHg 69%
    05:00 +5°C° 0 mm 6 mps 765 mmHg 71%
    06:00 +8°C° 0 mm 6 mps 766 mmHg 66%
    07:00 +10°C° 0 mm 7 mps 766 mmHg 62%
    08:00 +12°C° 0 mm 7 mps 766 mmHg 57%
    09:00 +14°C° 0 mm 7 mps 766 mmHg 53%
    10:00 +15°C° 0 mm 7 mps 766 mmHg 49%
    11:00 +17°C° 0 mm 7 mps 766 mmHg 45%
    12:00 +17°C° 0 mm 7 mps 766 mmHg 45%
    13:00 +17°C° 0 mm 6 mps 765 mmHg 45%
    14:00 +19°C° 0 mm 5 mps 765 mmHg 45%
    15:00 +17°C° 0 mm 5 mps 765 mmHg 48%
    16:00 +16°C° 0 mm 5 mps 765 mmHg 51%
    17:00 +15°C° 0 mm 5 mps 765 mmHg 53%
    18:00 +14°C° 0 mm 5 mps 766 mmHg 54%
    19:00 +12°C° 0 mm 5 mps 766 mmHg 56%
    20:00 +10°C° 0 mm 5 mps 766 mmHg 57%
    21:00 +9°C° 0 mm 5 mps 766 mmHg 59%
    22:00 +8°C° 0 mm 5 mps 766 mmHg 61%
    23:00 +7°C° 0 mm 4 mps 766 mmHg 63%
    Show more